Miscellaneous Local Product
Issued by NWS Hastings, NE

Home | Current Version | Previous Version | Text Only | Print | Product List | Glossary Off
Versions: 1 2 3 4 5 6 7 8 9 10 11 12 13 14 15 16 17 18 19 20 21 22 23 24 25 26 27 28 29 30 31 32 33 34 35 36 37 38 39 40 41 42 43 44 45 46 47 48 49 50

000
AXUS43 KGID 281302
MISGRI

GID CWA HOURLY WEATHER ROUNDUP
NATIONAL WEATHER SERVICE HASTINGS NE
700 AM CST FRI NOV 28 2014

NOTE: "FAIR" INDICATES FEW OR NO CLOUDS BELOW 12,000 FEET WITH NO
SIGNIFICANT WEATHER AND/OR OBSTRUCTIONS TO VISIBILITY.

...SOUTH CENTRAL NEBRASKA...

CITY           SKY/WX    TMP DP  RH WIND       PRES   REMARKS
GRAND ISLAND   CLEAR     26  20  77 SW5       29.85F WCI  20
HASTINGS       CLEAR     31  23  72 SW5       29.85F WCI  26
KEARNEY        CLEAR     28  21  74 S8        29.86F WCI  20
ORD            PTCLDY    19  15  84 CALM      29.81F
YORK           PTCLDY    23  19  86 SW7       29.86F WCI  15
AURORA         PTCLDY    24  19  82 SW5       29.86S WCI  18
LEXINGTON      PTCLDY    23  20  86 W6        29.86F WCI  16
HOLDREGE       PTCLDY    34  25  70 W5        29.86F WCI  29
HEBRON         PTCLDY    27  20  77 SW3       29.90F

...NEBRASKA PANHANDLE...

CITY           SKY/WX    TMP DP  RH WIND       PRES   REMARKS
CHADRON        CLEAR    N/A N/A N/A W9        29.77F
ALLIANCE       PTCLDY    35  25  66 SW14      29.81F WCI  26
SCOTTSBLUFF    PTCLDY    50  26  39 W15       29.82F
SIDNEY         MOCLDY    42  26  53 W16       29.88F

...WESTERN AND NORTH CENTRAL NEBRASKA...

CITY           SKY/WX    TMP DP  RH WIND       PRES   REMARKS
VALENTINE      CLEAR     29  26  89 SW6       29.76F WCI  23
AINSWORTH      CLEAR     32  27  80 S6        29.78S WCI  27
ONEILL         PTCLDY    28  24  84 SW6       29.78F WCI  22
BROKEN BOW     PTCLDY    36  26  67 SW5       29.83F WCI  32
IMPERIAL       PTCLDY    33  23  66 SW9       29.89F WCI  25
NORTH PLATTE   PTCLDY    20  19  96 NW6       29.86F WCI  12
MCCOOK         PTCLDY    32  24  72 SW9       29.89F WCI  24

...EASTERN NEBRASKA...

CITY           SKY/WX    TMP DP  RH WIND       PRES   REMARKS
NORFOLK        PTCLDY    25  19  78 S8        29.81F WCI  16
SO SIOUX CITY  MOCLDY    25  21  85 SE9       29.86F WCI  15
TEKAMAH        PTCLDY    21  17  84 SE6       29.89F WCI  13
COLUMBUS       PTCLDY    25  18  74 S3        29.86F
ALBION         CLEAR     24  19  78 CALM      29.83S
OMAHA EPPLEY   PTCLDY    28  23  81 S12       29.92F WCI  18
OFFUTT AFB     CLEAR     26  21  84 E7        29.91F WCI  18
MILLARD        CLEAR     27  22  82 SE3       29.92F
LINCOLN        PTCLDY    24  19  81 SE5       29.91F WCI  18
NEBRASKA CITY  PTCLDY    26  20  79 S10       29.93F WCI  16
BEATRICE       PTCLDY    29  23  78 S6        29.91F WCI  23
FALLS CITY     CLEAR     30  23  75 S6        29.97R WCI  24

...NORTHERN KANSAS...

CITY           SKY/WX    TMP DP  RH WIND       PRES   REMARKS
GOODLAND       CLEAR     41  21  44 W12       29.93F
HILL CITY      PTCLDY    33  23  66 CALM      29.90F
NORTON         SUNNY     34  21  60 SW13      29.89S WCI  25
PHILLIPSBURG   CLEAR     30  25  80 W7        29.90S WCI  23
SMITH CENTER   CLEAR     23  18  80 NW7       29.90F WCI  15
BELOIT         CLEAR     28  21  74 CALM      29.91F
HAYS           PTCLDY    30  19  64 W6        29.91F WCI  24
RUSSELL        PTCLDY    33  27  78 SW9       29.90F WCI  25
CONCORDIA      PTCLDY    33  26  75 SW8       29.91S WCI  26
SALINA         CLEAR     35  27  72 S15       29.95F WCI  25
TOPEKA         CLEAR     36  24  62 S8        30.00F WCI  30



USA.gov is the U.S. government's official web portal to all federal, state and local government web resources and services.